Location: Ostrava
(49.8330°N, 18.2830°E)
Time: 13:39:17
(UTC+01:00)

Vanguard 2 Rocket - Visible Passes

Search period start: 10 December 2016 00:00
Search period end: 20 December 2016 00:00
Orbit: 554 x 3328 km, 32.9° (Epoch: 09 December)

Date Brightness Start Highest point End Pass type
(mag) Time Alt. Az. Time Alt. Az. Time Alt. Az.
10 Dec 11.4 06:33:52 10° SSE 06:38:43 12° SSE 06:43:00 10° SE visible
12 Dec 11.2 06:42:34 10° S 06:52:50 19° SSE 07:00:51 10° ESE visible
13 Dec 11.3 05:44:01 10° S 05:52:41 15° SSE 06:00:00 10° ESE visible
14 Dec 11.4 04:48:06 10° SSE 04:52:29 11° SE 04:56:35 10° SE visible
14 Dec 11.0 06:53:44 10° SSW 07:06:56 26° SSE 07:16:39 10° ESE visible
15 Dec 11.1 05:53:57 10° SSW 06:06:37 22° SSE 06:16:39 10° ESE visible
16 Dec 11.2 04:55:12 10° S 05:06:16 18° SE 05:15:44 10° ESE visible
17 Dec 11.3 03:58:22 10° SSE 04:05:57 13° SE 04:13:01 10° ESE visible
17 Dec 10.8 06:05:28 10° SSW 06:20:33 29° SSE 06:32:06 10° ESE visible
18 Dec 10.9 05:05:46 10° SSW 05:20:00 25° SSE 05:31:52 10° ESE visible
19 Dec 11.1 04:07:05 10° S 04:19:31 20° SE 04:30:42 10° ESE visible
19 Dec 10.6 06:17:52 10° SW 06:34:28 35° SSE 06:47:02 10° ESE visible
